Showing default

HAWK-11A, 62382

Orbit data source: Space-Track

HAWK-11A, 62382 is a payload satellite owned by HawkEye 360 (US) in LEO that was launched on Sat, 21 Dec 2024 UTC via an FALCON 9 launch vehicle from the Air Force Western Test Range (AFWTR). Payload-class satellites include a variety of spacecraft equipped with specific instruments for various scientific and technological missions. These include communications satellites like Starlink; space stations such as the ISS; scientific satellites like the Hubble; Earth observation satellites from companies like Planet Labs, Umbra, and HawkEye 360; GPS; miniature CubeSats for education and research; and military/defense satellites.

Loading next visibility...
Identifier
62382, 2024-247F
Orbit
LEO
Country
Flag of USUS
Related business
Manufacturer
UTIAS-SFL
Mission
Operational Commercial Sigint
Bus & Motor
HAWK2G, Unknown motor
Mass
31 kg wet, 30 kg dry
Launch date (UTC)
2024-12-21 (1 year ago)
Launch vehicle
FALCON 9
Launch site
Air Force Western Test Range (AFWTR)
Object type
Payload
Rocket body
Debris
Shape & HBR
Box + 2 Pan, 1.0 m
Radar Cross Section
0.240 m², Medium (>0.1 m² and < 1m²)

Expand to show TLE details & history
Last TLE update: 12 hours ago

TLE from 12 hours ago
0 HAWK-11A
1 62382U 24247F   26094.05640862  .00014735  00000-0  51723-3 0  9993
2 62382  44.9960 334.5547 0003996 155.3529 204.7547 15.29348062 71651
Epoch: 2026-04-04T01:21Z
TLE epoch observation values (Epoch: 2026-04-04T01:21:13.704Z)
Latitude
0.00002°
Longitude
121.86596°
Altitude
480.246 km
Speed
7.626 km/s
True Right ascension
22h 18m 13s
True Declination
0° 00' 00"
Sunlit
Object was in daylight at epoch
Visualization orbit readout
Latitude
Unknown
Longitude
Unknown
Altitude
Unknown
Speed
Unknown
Apparent Right ascension
Unknown
Apparent Declination
Unknown
Sunlit
N/A
Visualization observer readout
Local Sidereal Time
19:10:11
Azimuth
Unknown
Elevation
Unknown
Doppler factor
Unknown
Orbital elements
Apogee altitude
482.111 km
Perigee altitude
476.631 km
Semi-major axis
6,857.508 km
Eccentricity
0.0004
Inclination
44.996°
RAAN
334.5547°
Arg. of periapsis
155.3529°
True anomaly
204.73553°
Mean anomaly
204.7547°
Eccentric anomaly
204.74512°
Mean motion
3.82203 °/min
Orbital period
94.19 mins
BSTAR
0.00051723
Loading maneuver chart data...
Computing Atmospheric mass density...
Loading historical data...
Loading historical data...
Loading historical data...
Loading historical data...
Loading historical data...
Loading historical data...
Loading historical data...

Documentation

Showing up to 5 results
|